Location: Clair
(33.8067°N, 117.9845°W)
Time: 02:46:41
(UTC+00:00)

Cosmos 783 Rocket - Visible Passes

Search period start: 16 May 2026 00:00
Search period end: 26 May 2026 00:00
Orbit: 753 x 776 km, 74.1° (Epoch: 15 May)

Date Brightness Start Highest point End Pass type
(mag) Time Alt. Az. Time Alt. Az. Time Alt. Az.
16 May 5.3 09:35:02 46° ENE 09:35:02 46° ENE 09:39:06 10° NNE visible
16 May 6.3 11:15:13 15° WNW 11:16:19 16° WNW 11:19:25 10° NNW visible
17 May 6.4 08:57:37 24° ENE 08:57:37 24° ENE 09:00:25 10° NE visible
17 May 5.7 10:37:48 28° WNW 10:37:52 28° WNW 10:42:19 10° N visible
18 May 7.1 08:20:10 12° ENE 08:20:10 12° ENE 08:20:58 10° ENE visible
18 May 5.1 10:00:21 46° NW 10:00:21 46° NW 10:04:38 10° N visible
19 May 5.3 09:22:52 48° NNE 09:22:52 48° NNE 09:26:37 10° NNE visible
20 May 6.1 08:45:22 30° NE 08:45:22 30° NE 08:48:15 10° NNE visible
20 May 6.3 10:25:32 18° WNW 10:25:32 18° WNW 10:28:57 10° NNW visible
21 May 6.8 08:07:50 17° ENE 08:07:50 17° ENE 08:09:27 10° NE visible
21 May 5.8 09:48:00 29° NW 09:48:00 29° NW 09:51:41 10° N visible
22 May 5.6 09:10:27 39° NNW 09:10:27 39° NNW 09:13:55 10° N visible
23 May 5.9 08:32:51 34° NNE 08:32:51 34° NNE 08:35:49 10° NNE visible
23 May 6.8 10:13:02 11° WNW 10:13:07 11° WNW 10:14:37 10° NW visible
24 May 6.5 07:55:14 23° NE 07:55:14 23° NE 07:57:22 10° NNE visible
24 May 6.4 09:35:25 19° NW 09:35:25 19° NW 09:38:26 10° NNW visible
25 May 7.0 07:17:36 13° NE 07:17:36 13° NE 07:18:26 10° NE visible
25 May 6.0 08:57:46 29° NNW 08:57:46 29° NNW 09:01:01 10° N visible
